[[{"header":{"parameterUnit":"m.s-1","parameterCategory":1,"la1":30.2991,"la2":30.254,"lo1":-89.0895,"lo2":-89.0444,"dy":0.0017,"dx":0.0017,"nx":28,"ny":28,"refTime":"2025-08-13T03:00:00:Z","depth":0,"parameterNumber":2,"parameterNumberName":"U-component_of_WINDS"},"data":[0,0,0,0,0,0,0,0,0,0,0,0,0,0,0,0,0,0,0,0,0,0,0,0,0,0,0,0,0,0,0,0,0,0,0,0,0,0,0,0,0,0,0,0,0,0,0,0,0,0,0,0,0,0,0,0,0,0,0.724,0.7243,0,0.7496,0.7499,0.7501,0.756,0.7558,0.7556,0.7554,0.7832,0.7841,0.785,0,0,0,0,0,0,0,0,0,0,0,0,0,0.6818,0.6825,0.724,0.7243,0.7246,0.7495,0.7499,0.7502,0.756,0.7558,0.7556,0.7554,0.7829,0.7839,0.785,0,0,0,0,0,0,0,0,0,0,0,0,0,0.703,0.6828,0.724,0.7305,0.7313,0.7494,0.7499,0.7503,0.7561,0.7558,0.7555,0.7553,0.7825,0.7838,0.7852,0.7991,0,0,0.7893,0.7899,0,0,0,0,0,0,0,0,0.7018,0.7046,0.7292,0.7301,0.731,0.7493,0.7452,0.7667,0.7561,0.7467,0.7554,0.7551,0.7722,0.7744,0.7799,0.8004,0.8016,0.7895,0.7903,0.7909,0.7913,0,0,0,0,0,0,0,0.7003,0.7035,0.7342,0.7296,0.7307,0.7327,0.7354,0.7493,0.7608,0.7475,0.748,0.7509,0.7727,0.7785,0.7806,0.802,0.7894,0.7906,0.7915,0.792,0.8354,0.8357,0,0,0,0,0,0,0.6975,0.7023,0.7334,0.7349,0.7154,0.7336,0.7367,0.7437,0.7606,0.7629,0.7511,0.751,0.7763,0.779,0.7815,0.799,0.7909,0.7921,0.7929,0.8351,0.8355,0.8358,0,0,0,0,0,0,0.6966,0.7002,0.7323,0.7187,0.723,0.7346,0.7425,0.7444,0.7502,0.7633,0.7655,0.7548,0.7762,0.7796,0.7946,0.8,0.7928,0.794,0.8347,0.8352,0.8357,0.8338,0,0,0,0,0,0,0.6953,0.6998,0.7048,0.7188,0.7236,0.7444,0.7429,0.7451,0.7523,0.7525,0.7674,0.7696,0.7763,0.7925,0.7959,0.8017,0.7951,0.8342,0.8349,0.8355,0.8334,0.8342,0.8348,0,0,0,0,0,0.6938,0.7036,0.7051,0.7088,0.7301,0.7447,0.7476,0.7546,0.7527,0.7581,0.7666,0.7691,0.7988,0.794,0.7979,0.8042,0.8339,0.8347,0.8354,0.8331,0.834,0.8348,0,0,0,0,0,0,0.6905,0.7056,0.7073,0.7218,0.7319,0.7457,0.7526,0.7553,0.7665,0.7663,0.7751,0.7784,0.7929,0.8001,0.7944,0.8186,0.8164,0.818,0.8133,0.8143,0.8149,0.8129,0.7962,0,0,0,0,0,0.6914,0.7015,0.7144,0.726,0.7309,0.7409,0.7475,0.752,0.7631,0.7675,0.777,0.788,0.7999,0.8075,0.8191,0.8345,0.838,0.8408,0.8415,0.842,0.8433,0.8522,0.8536,0.8383,0.8383,0.8383,0,0,0.6935,0.703,0.7089,0.7255,0.7339,0.7446,0.7444,0.7559,0.7641,0.7694,0.7839,0.7913,0.8043,0.8195,0.8267,0.826,0.8483,0.843,0.8433,0.8443,0.8531,0.8545,0.8558,0.8388,0.8387,0.8387,0,0,0.7027,0.7108,0.7213,0.7296,0.7421,0.7487,0.7512,0.7646,0.7696,0.7842,0.7884,0.7987,0.8188,0.8278,0.8351,0.8479,0.8507,0.8515,0.8551,0.8636,0.8648,0.8659,0.8706,0.8721,0.8527,0.8527,0.8527,0,0.7039,0.7197,0.7266,0.7377,0.745,0.7499,0.7609,0.7688,0.7847,0.7898,0.7887,0.814,0.8231,0.8405,0.8436,0.8493,0.8528,0.8498,0.864,0.8652,0.8663,0.8709,0.8726,0.8527,0.8527,0.8527,0.8527,0,0.7206,0.7316,0.7387,0.7533,0.7615,0.7725,0.7815,0.7891,0.7929,0.7998,0.8149,0.8259,0.8398,0.8443,0.8485,0.8625,0.8616,0.8621,0.8601,0.8677,0.8721,0.8739,0.8527,0.8527,0.8527,0.8527,0,0,0.7283,0.7465,0.749,0.7557,0.7699,0.7788,0.7903,0.8034,0.8098,0.8207,0.8307,0.8477,0.8482,0.8564,0.8617,0.8691,0.8786,0.8688,0.8692,0.8702,0.895,0.8944,0.8963,0.8806,0.881,0.8813,0.8939,0,0.7393,0.7593,0.7659,0.7827,0.7932,0.798,0.8081,0.8182,0.825,0.8352,0.843,0.8548,0.8546,0.8596,0.8672,0.8758,0.8837,0.875,0.8904,0.8909,0.8869,0.8986,0.8981,0.9094,0.8957,0.896,0.8962,0,0.7547,0.7652,0.7829,0.7958,0.8005,0.8093,0.822,0.8316,0.8433,0.8477,0.8568,0.8615,0.8742,0.8713,0.8891,0.883,0.8898,0.895,0.8957,0.8974,0.8939,0.9007,0.9132,0.9149,0.899,0.8987,0.8985,0,0.7585,0.7773,0.7903,0.796,0.8113,0.8175,0.8243,0.8356,0.8431,0.8544,0.8595,0.8722,0.8793,0.8893,0.8975,0.8946,0.9146,0.9124,0.9189,0.9187,0.9229,0.9225,0.9367,0.9272,0.9272,0.9272,0.9271,0,0.77,0.7807,0.7922,0.8002,0.8125,0.8203,0.8323,0.8395,0.8496,0.8595,0.8647,0.874,0.8841,0.8949,0.9015,0.9152,0.9185,0.9227,0.9243,0.9222,0.9216,0.9267,0.9261,0.9276,0.9275,0.9275,0.9274,0,0.7764,0.7845,0.799,0.8123,0.8159,0.8244,0.836,0.8443,0.8513,0.8637,0.8671,0.8783,0.8912,0.9003,0.9171,0.9215,0.9364,0.938,0.9322,0.933,0.939,0.9383,0.9569,0.9599,0.9484,0.9485,0.9486,0,0.7831,0.7914,0.8055,0.8122,0.8188,0.8297,0.8373,0.8454,0.8532,0.8672,0.8738,0.887,0.8979,0.9184,0.9283,0.9413,0.9432,0.9489,0.9452,0.9428,0.9433,0.9427,0.9436,0.9494,0.9495,0.9495,0.9496,0,0.7942,0.7978,0.8083,0.8203,0.8291,0.839,0.8491,0.8544,0.8645,0.873,0.886,0.8944,0.9113,0.9245,0.9383,0.9459,0.9496,0.9506,0.9528,0.9507,0.947,0.9491,0.9337,0.9502,0.9501,0.9501,0.95,0.95,0.801,0.8086,0.8197,0.8313,0.8396,0.8489,0.8572,0.8652,0.876,0.89,0.8943,0.9079,0.9197,0.9386,0.9464,0.9574,0.9571,0.9603,0.9611,0.9617,0.9616,0.9452,0.96,0.96,0.96,0.96,0.96,0,0.8124,0.8197,0.8303,0.844,0.8532,0.8554,0.8667,0.8744,0.886,0.8965,0.907,0.9221,0.9349,0.9458,0.9591,0.9659,0.9679,0.9691,0.9687,0.9704,0.9611,0.9579,0.9672,0.9672,0.9672,0.9672,0.9672,0.9672,0.8194,0.8323,0.8373,0.8546,0.8621,0.8749,0.8812,0.89,0.8984,0.9147,0.9252,0.932,0.9429,0.957,0.969,0.9719,0.9766,0.9774,0.9808,0.9719,0.9711,0.9703,0.9672,0.9784,0.9784,0.9892,0.9893,0.9893]},{"header":{"parameterUnit":"m.s-1","parameterCategory":1,"la1":30.2991,"la2":30.254,"lo1":-89.0895,"lo2":-89.0444,"dy":0.0017,"dx":0.0017,"nx":28,"ny":28,"refTime":"2025-08-13T03:00:00:Z","depth":0,"parameterNumber":3,"parameterNumberName":"V-component_of_WINDS"},"data":[0,0,0,0,0,0,0,0,0,0,0,0,0,0,0,0,0,0,0,0,0,0,0,0,0,0,0,0,0,0,0,0,0,0,0,0,0,0,0,0,0,0,0,0,0,0,0,0,0,0,0,0,0,0,0,0,0,0,2.3268,2.3267,0,2.3166,2.3165,2.3164,2.3015,2.3013,2.301,2.3008,2.2907,2.2906,2.2906,0,0,0,0,0,0,0,0,0,0,0,0,0,2.3338,2.3338,2.3268,2.3267,2.3266,2.3167,2.3165,2.3164,2.3016,2.3013,2.301,2.3007,2.2907,2.2907,2.2906,0,0,0,0,0,0,0,0,0,0,0,0,0,2.328,2.3338,2.3269,2.318,2.3171,2.3167,2.3165,2.3163,2.3017,2.3013,2.3009,2.3005,2.2907,2.2907,2.2906,2.2982,0,0,2.2905,2.2905,0,0,0,0,0,0,0,0,2.3283,2.3277,2.3194,2.3186,2.3176,2.31,2.3153,2.3103,2.3018,2.3075,2.3008,2.3003,2.2974,2.2968,2.2958,2.2977,2.2972,2.2905,2.2905,2.2904,2.2904,0,0,0,0,0,0,0,2.3287,2.3281,2.3228,2.3193,2.3182,2.3146,2.3134,2.3142,2.3048,2.307,2.3059,2.3049,2.2969,2.2958,2.2954,2.2971,2.2905,2.2905,2.2904,2.2904,2.305,2.3054,0,0,0,0,0,0,2.3304,2.3285,2.3231,2.3225,2.3221,2.3148,2.3134,2.3128,2.3047,2.3031,2.3052,2.3042,2.2961,2.2955,2.295,2.3036,2.2904,2.2904,2.2904,2.3046,2.3051,2.3055,0,0,0,0,0,0,2.3306,2.3301,2.3235,2.3252,2.3241,2.3151,2.3146,2.3128,2.3118,2.3034,2.3017,2.3059,2.2958,2.2951,2.2975,2.303,2.2904,2.2904,2.3041,2.3047,2.3053,2.3206,0,0,0,0,0,0,2.3309,2.3302,2.3329,2.3254,2.3241,2.3262,2.3149,2.3129,2.3117,2.3103,2.3036,2.3021,2.2954,2.2977,2.2975,2.3027,2.2903,2.3036,2.3044,2.3051,2.3196,2.3217,2.3235,0,0,0,0,0,2.3312,2.3377,2.3331,2.3326,2.3272,2.3265,2.3258,2.3179,2.3122,2.3149,2.3096,2.3023,2.3024,2.298,2.2977,2.303,2.3032,2.3041,2.305,2.3187,2.3213,2.3234,0,0,0,0,0,0,2.3462,2.3365,2.3314,2.3356,2.332,2.324,2.3272,2.3208,2.3188,2.3176,2.3079,2.3065,2.3103,2.3068,2.3022,2.31,2.3017,2.3026,2.3122,2.3146,2.3165,2.3174,2.2903,0,0,0,0,0,2.3499,2.3501,2.3416,2.3462,2.3446,2.3363,2.3356,2.3299,2.3258,2.3242,2.319,2.3154,2.3146,2.3143,2.3131,2.3189,2.3174,2.3224,2.3244,2.326,2.327,2.3301,2.3323,2.3086,2.3086,2.3085,0,0,2.3578,2.3525,2.3532,2.349,2.3456,2.3461,2.3351,2.336,2.3364,2.3244,2.3265,2.3225,2.3179,2.3222,2.3238,2.3194,2.3332,2.3272,2.3285,2.3286,2.3313,2.3336,2.3356,2.3092,2.3091,2.309,0,0,2.3724,2.3683,2.3718,2.3685,2.3634,2.3578,2.3587,2.3516,2.3486,2.3505,2.3415,2.3418,2.3406,2.3378,2.3362,2.3499,2.3433,2.3497,2.36,2.3632,2.3651,2.3667,2.3719,2.3739,2.3507,2.3507,2.3507,0,2.3829,2.3832,2.3744,2.376,2.3745,2.3635,2.3671,2.3644,2.3592,2.3586,2.3536,2.352,2.3481,2.3517,2.3551,2.354,2.3549,2.3506,2.3655,2.367,2.3684,2.3733,2.3752,2.3516,2.3515,2.3514,2.3513,0,2.3965,2.3968,2.4002,2.3955,2.3944,2.397,2.3887,2.3887,2.383,2.378,2.3802,2.3751,2.3728,2.3731,2.3676,2.3761,2.3735,2.3672,2.3587,2.3717,2.3761,2.3779,2.3528,2.3525,2.3522,2.352,0,0,2.4204,2.4107,2.4122,2.41,2.4036,2.4038,2.4059,2.4036,2.4039,2.4007,2.4024,2.4017,2.3958,2.394,2.388,2.3908,2.4024,2.3841,2.3838,2.388,2.4118,2.4169,2.4192,2.3978,2.3981,2.3984,2.4123,0,2.434,2.4371,2.4293,2.4344,2.4348,2.4244,2.4263,2.4227,2.4181,2.4178,2.4127,2.4125,2.4046,2.4035,2.4057,2.4005,2.4071,2.3993,2.3997,2.3998,2.4015,2.4214,2.4267,2.4402,2.414,2.4142,2.4144,0,2.4503,2.448,2.4532,2.4466,2.4465,2.4483,2.4457,2.4455,2.4413,2.4377,2.4358,2.4288,2.4307,2.4223,2.4249,2.4198,2.4194,2.4169,2.4173,2.4173,2.4082,2.4224,2.4442,2.4464,2.417,2.4168,2.4166,0,2.4677,2.4658,2.4687,2.4671,2.4594,2.4611,2.458,2.4533,2.4525,2.4502,2.4496,2.4476,2.4466,2.4453,2.4381,2.4326,2.4417,2.4326,2.4391,2.4393,2.4417,2.4417,2.4642,2.4409,2.4409,2.4409,2.4408,0,2.4839,2.4876,2.4764,2.4783,2.4821,2.4731,2.4773,2.4731,2.4691,2.4701,2.4609,2.4621,2.4523,2.4524,2.4467,2.45,2.4495,2.4469,2.4454,2.4479,2.4483,2.4478,2.4468,2.4414,2.4413,2.4412,2.4411,0,2.5041,2.4967,2.4993,2.4918,2.49,2.4933,2.487,2.4885,2.4832,2.4847,2.4845,2.4764,2.4761,2.4687,2.4668,2.463,2.4687,2.4653,2.4702,2.4692,2.4763,2.4759,2.4995,2.5023,2.477,2.4772,2.4774,0,2.515,2.5176,2.5105,2.5105,2.5078,2.5079,2.507,2.4983,2.4978,2.4933,2.4954,2.4944,2.4931,2.4932,2.4872,2.4859,2.4826,2.4909,2.4823,2.4849,2.4831,2.4832,2.4836,2.4929,2.4932,2.4935,2.4937,0,2.5354,2.5317,2.5307,2.5287,2.5279,2.5258,2.5231,2.5237,2.5141,2.5141,2.5137,2.5127,2.5108,2.5101,2.5076,2.5045,2.4978,2.4964,2.4979,2.5007,2.5035,2.5025,2.4755,2.496,2.4957,2.4956,2.4955,2.4954,2.5515,2.5534,2.5488,2.5481,2.5452,2.543,2.5442,2.5391,2.5386,2.5364,2.5312,2.5318,2.5276,2.5236,2.5212,2.5216,2.5174,2.5194,2.52,2.5208,2.5223,2.5032,2.5211,2.521,2.5209,2.5208,2.5208,0,2.5717,2.5682,2.5677,2.5643,2.5639,2.5572,2.554,2.5542,2.5547,2.5514,2.5503,2.55,2.5493,2.5433,2.5419,2.5434,2.5402,2.5434,2.5433,2.5428,2.526,2.525,2.546,2.546,2.5459,2.5459,2.5459,2.5459,2.5822,2.5852,2.581,2.5826,2.579,2.5794,2.5782,2.5762,2.5735,2.5736,2.5729,2.5689,2.5647,2.5629,2.562,2.5603,2.5604,2.5646,2.5619,2.5464,2.544,2.5417,2.5407,2.5646,2.5647,2.5787,2.5789,2.579]}]]